TimeAST,TemperatureF,Dew PointF,Humidity,Sea Level PressureIn,VisibilityMPH,Wind Direction,Wind SpeedMPH,Gust SpeedMPH,PrecipitationIn,Events,Conditions,WindDirDegrees,DateUTC
12:56 AM,81.0,72.0,74,30.01,10.0,Calm,Calm,-,N/A,,Scattered Clouds,0,2012-07-08 04:56:00
1:56 AM,80.1,73.0,79,29.99,10.0,Calm,Calm,-,N/A,,Partly Cloudy,0,2012-07-08 05:56:00
2:56 AM,80.1,72.0,76,29.98,10.0,Calm,Calm,-,N/A,,Scattered Clouds,0,2012-07-08 06:56:00
3:56 AM,80.1,72.0,76,29.99,10.0,Calm,Calm,-,N/A,,Partly Cloudy,0,2012-07-08 07:56:00
4:56 AM,80.1,72.0,76,29.99,10.0,Calm,Calm,-,N/A,,Scattered Clouds,0,2012-07-08 08:56:00
5:56 AM,79.0,73.9,84,29.99,10.0,Calm,Calm,-,0.07,,Scattered Clouds,0,2012-07-08 09:56:00
6:56 AM,79.0,73.9,84,30.01,10.0,Calm,Calm,-,N/A,,Scattered Clouds,0,2012-07-08 10:56:00
7:56 AM,79.0,73.0,82,30.02,9.0,ESE,3.5,-,0.04,Rain,Light Rain,120,2012-07-08 11:56:00
8:56 AM,84.0,75.0,74,30.03,10.0,ENE,6.9,-,0.01,,Scattered Clouds,60,2012-07-08 12:56:00
9:56 AM,86.0,73.0,65,30.04,10.0,ENE,12.7,-,N/A,,Scattered Clouds,70,2012-07-08 13:56:00
10:56 AM,88.0,73.9,63,30.04,10.0,NE,13.8,-,N/A,,Scattered Clouds,50,2012-07-08 14:56:00
11:56 AM,88.0,73.0,61,30.03,10.0,ENE,16.1,-,N/A,,Scattered Clouds,60,2012-07-08 15:56:00
12:56 PM,88.0,73.0,61,30.02,10.0,ENE,18.4,-,N/A,,Scattered Clouds,60,2012-07-08 16:56:00
1:56 PM,84.9,72.0,65,30.01,10.0,East,12.7,-,N/A,,Scattered Clouds,80,2012-07-08 17:56:00
2:56 PM,84.9,73.0,67,30.00,10.0,ENE,12.7,-,N/A,,Scattered Clouds,70,2012-07-08 18:56:00
3:56 PM,86.0,73.9,67,29.98,10.0,ENE,13.8,21.9,N/A,,Scattered Clouds,70,2012-07-08 19:56:00
4:56 PM,86.0,73.9,67,29.96,10.0,ENE,16.1,-,N/A,,Scattered Clouds,70,2012-07-08 20:56:00
5:56 PM,84.0,73.0,69,29.97,10.0,ENE,11.5,-,N/A,,Scattered Clouds,70,2012-07-08 21:56:00
6:56 PM,82.9,73.9,74,29.98,10.0,East,10.4,-,N/A,,Scattered Clouds,80,2012-07-08 22:56:00
7:56 PM,82.0,73.9,76,29.99,10.0,East,10.4,-,N/A,,Scattered Clouds,80,2012-07-08 23:56:00
8:56 PM,82.0,73.9,76,30.00,10.0,East,10.4,-,N/A,,Scattered Clouds,80,2012-07-09 00:56:00
9:56 PM,82.0,73.9,76,30.01,10.0,East,6.9,-,N/A,,Partly Cloudy,80,2012-07-09 01:56:00
10:56 PM,82.0,73.0,74,30.02,10.0,East,5.8,-,N/A,,Scattered Clouds,90,2012-07-09 02:56:00
11:56 PM,82.0,73.0,74,30.01,10.0,East,4.6,-,N/A,,Scattered Clouds,100,2012-07-09 03:56:00